{"data":{"norad_id":56387,"intl_designator":"2023-061P","name":"STARLINK-6178","alt_names":[],"object_type":"PAYLOAD","status":"ACTIVE","operator":null,"country":"US","launch_date":"2023-05-04","launch_site_code":"AFETR","launch_vehicle":null,"mission":null,"orbit_class":"UNKNOWN","rcs_meters":null,"size_class":null,"mass_kg":null,"dimensions":null,"purposes":["comms"],"wikipedia_slug":null,"has_3d_model":false,"image_url":null,"decayed_at":null,"tle_current":{"epoch":"2026-05-25T00:07:06.886848Z","epoch_age_seconds":71682,"freshness":"FRESH","line1":"1 56387U 23061P   26145.00494082  .00000404  00000+0  24216-4 0  9992","line2":"2 56387  43.0046 126.6888 0001465 284.4078  75.6611 15.27578193168421","mean_motion":15.27578193,"eccentricity":0.0001465,"inclination_deg":43.0046,"raan_deg":126.6888,"arg_perigee_deg":284.4078,"mean_anomaly_deg":75.6611,"bstar":2.4216e-5,"rev_number":16842,"period_min":94.266860223501,"perigee_km":482.0493422973,"apogee_km":484.05967140881,"semimajor_km":6861.1915068531,"source":"CELESTRAK","updated_at":"2026-05-25T13:38:18.013042Z"}}}